Location: Unspecified
(0.0000°N, 0.0000°E)
Time: 07:09:59
(UTC+00:00)

LilacSat-2 - Visible Passes

Search period start: 20 July 2018 00:00
Search period end: 30 July 2018 00:00
Orbit: 515 x 535 km, 97.5° (Epoch: 19 July)

Date Brightness Start Highest point End Pass type
(mag) Time Alt. Az. Time Alt. Az. Time Alt. Az.
20 Jul ? 05:34:02 10° NNE 05:37:51 81° E 05:41:40 10° S visible
21 Jul ? 05:22:19 10° NNE 05:26:02 50° E 05:29:44 10° S visible
22 Jul ? 05:10:48 10° NE 05:14:12 31° E 05:17:36 10° SSE visible
23 Jul ? 04:59:29 10° NE 05:02:22 21° E 05:05:16 10° SSE visible
23 Jul ? 18:28:24 10° SW 18:30:25 14° WSW 18:32:28 10° WNW visible
24 Jul ? 04:48:34 10° ENE 04:50:33 14° ESE 04:52:33 10° SE visible
28 Jul ? 05:33:26 10° NNE 05:37:13 79° E 05:41:00 10° S visible
29 Jul ? 05:21:43 10° NNE 05:25:23 48° E 05:29:03 10° S visible
